Weather History for HTZA - December, 2013

Change the Weather History Date:

Saturday, December 14, 2013

  Actual Average Record
Temperature  
Mean Temperature 84 °F -  
Max Temperature 91 °F 84 °F 91 °F (2013)
Min Temperature 77 °F 77 °F 74 °F (2012)
Cooling Degree Days 19    
Growing Degree Days 34 (Base 50)    
Moisture  
Dew Point 76 °F    
Average Humidity 78    
Maximum Humidity 89    
Minimum Humidity 52    
Precipitation  
Precipitation 0.00 in 0.19 in - ()
Sea Level Pressure  
Sea Level Pressure 29.84 in    
Wind  
Wind Speed 4 mph ()    
Max Wind Speed 22 mph    
Max Gust Speed -    
Visibility 9.6 miles    
Events      
Averages and records for this station are not official NWS values.
T = Trace of Precipitation, MM = Missing Value Source: Averaged Metar Reports

Daily Weather History Graph

Daily Weather History Graph

Search for Another Location

Airport or City:

Trip Planner

Search our weather history database for the weather conditions in past years. The results will help you decide how hot, cold, wet, or windy it might be!

Date:

Astronomy

Dec. 14, 2013 Rise Set
Actual Time 6:03 AM EAT 6:32 PM EAT
Civil Twilight 5:40 AM EAT 6:55 PM EAT
Nautical Twilight 5:13 AM EAT 7:21 PM EAT
Astronomical Twilight 4:47 AM EAT 7:48 PM EAT
Moon 4:13 PM EAT (12/14) 3:33 AM EAT (12/14)
Length of Visible Light 13h 14m
Length of Day
12h 29m
Waxing Gibbous, 92% of the Moon is Illuminated
Dec 14
Waxing Gibbous
Dec 17
Full
Dec 25
Last Quarter
Jan 1
New
Jan 8
First Quarter

Hourly Weather History & Observations

Time (EAT) Temp. Heat Index Dew Point Humidity Pressure Visibility Wind Dir Wind Speed Gust Speed Precip Events Conditions
12:00 AM 80 °F - 76 °F 83% 29.85 in 19 mi Calm Calm - -   Scattered Clouds
12:00 AM 80.6 °F 86.2 °F 75.2 °F 84% 29.83 in 6.2 mi Calm Calm - N/A   Partly Cloudy
1:00 AM 78.8 °F - 75.2 °F 89% 29.83 in 6.2 mi Calm Calm - N/A   Scattered Clouds
2:00 AM 78.8 °F - 75.2 °F 89% 29.83 in 6.2 mi Calm Calm - N/A   Partly Cloudy
3:00 AM 79 °F - 75 °F 85% 29.82 in 19 mi Calm Calm - -   Scattered Clouds
3:00 AM 78.8 °F - 75.2 °F 89% 29.80 in 6.2 mi Calm Calm - N/A   Partly Cloudy
4:00 AM 78.8 °F - 75.2 °F 89% 29.83 in 6.2 mi Calm Calm - N/A   Partly Cloudy
5:00 AM 78.8 °F - 75.2 °F 89% 29.83 in 6.2 mi Calm Calm - N/A   Partly Cloudy
6:00 AM 78 °F - 75 °F 88% 29.87 in 16 mi Calm Calm - -   Scattered Clouds
6:00 AM 78.8 °F - 75.2 °F 89% 29.86 in 6.2 mi Calm Calm - N/A   Partly Cloudy
8:00 AM 84.2 °F 94.1 °F 77.0 °F 79% 29.89 in 6.2 mi North 5.8 mph - N/A   Partly Cloudy
9:00 AM 86 °F - 75 °F 64% 29.92 in 19 mi NNE 13.4 mph - -   Mostly Cloudy
9:00 AM 86.0 °F 95.1 °F 75.2 °F 70% 29.89 in 6.2 mi NNE 6.9 mph - N/A   Partly Cloudy
10:00 AM 86.0 °F 96.9 °F 77.0 °F 74% 29.89 in 6.2 mi NNE 8.1 mph - N/A   Partly Cloudy
11:00 AM 87.8 °F 97.6 °F 75.2 °F 66% 29.89 in 6.2 mi NNE 9.2 mph - N/A   Partly Cloudy
12:00 PM 87 °F - 78 °F 69% 29.88 in 16 mi Calm Calm - -   Mostly Cloudy
12:00 PM 86.0 °F 99.3 °F 78.8 °F 79% 29.86 in 6.2 mi North 4.6 mph - N/A   Partly Cloudy
2:00 PM 89.6 °F 99.8 °F 75.2 °F 62% 29.80 in 6.2 mi NNE 11.5 mph - N/A   Partly Cloudy
3:00 PM 90 °F - 74 °F 52% 29.78 in 19 mi NE 22.4 mph - -   Mostly Cloudy
3:00 PM 89.6 °F 99.8 °F 75.2 °F 62% 29.77 in 6.2 mi NE 11.5 mph - N/A   Partly Cloudy
6:00 PM 86 °F - 77 °F 68% 29.79 in 19 mi ENE 16.1 mph - -   Scattered Clouds
6:00 PM 86.0 °F 96.9 °F 77.0 °F 74% 29.77 in 6.2 mi ENE 16.1 mph - N/A   Partly Cloudy
7:00 PM 84.2 °F 92.3 °F 75.2 °F 74% 29.80 in 6.2 mi ENE 13.8 mph - N/A   Partly Cloudy
8:00 PM 82.4 °F 89.5 °F 75.2 °F 79% 29.83 in 6.2 mi NE 11.5 mph - N/A   Partly Cloudy
9:00 PM 82 °F - 77 °F 79% 29.87 in 19 mi ENE 11.5 mph - -   Scattered Clouds
9:00 PM 82.4 °F 90.9 °F 77.0 °F 84% 29.86 in 6.2 mi ENE 11.5 mph - N/A   Partly Cloudy
10:00 PM 82.4 °F 90.9 °F 77.0 °F 84% 29.86 in 6.2 mi ENE 9.2 mph - N/A   Partly Cloudy
11:00 PM 82.4 °F 90.9 °F 77.0 °F 84% 29.86 in 6.2 mi Calm Calm - N/A   Partly Cloudy